Terug naar catalogus

STARLINK-37787

ActiefCommunicatieSSO
NORAD 69692·PAYLOAD·🇺🇸 United States

Gelanceerd Jun 25, 2026 vanaf Vandenberg Space Force Base

Loading…

Volgende Passages (komende 24 uur)

TLE

VersSource: CelesTrak SupGP

Epoch: Sep 15, 2026, 03:24 UTC

1 69692C 26145R   26258.14215278 -.00033737  00000+0 -10469-2 0  2587
2 69692  97.2849 104.9264 0001813  91.4391 314.1219 15.33465827    15

Volg STARLINK-37787 in realtime met AllMySat

Download on the App Store